Find Starlink 32504

NORAD ID: 62024 Int'l Des: 2024-213 Owner: SPXS Country: US Constellation: starlink operational
LEOCIRCULAR

Current View

Loading 3D Globe...

About Starlink 32504

Starlink 32504 (NORAD 62024) is a starlink constellation satellite (v2 mini) launched Nov 18, 2024 by SPXS of US. It operates in LEO, CIRCULAR orbit with a mass of 730.00 kg.

About Starlink 32504

Description loading...

Upcoming Passes

Passes for default location (London). Set your location on the main map for personalized predictions.

Altitude History

Loading altitude history...

Two-Line Element Set

1 62024U 24213S 26174.87388570 .00020313 00000-0 69572-3 0 9993
2 62024 53.1589 34.8029 0001801 87.4558 272.6649 15.30215661 89418
Epoch: Jun 23, 2026 • Age: 20 hours

Current Status

Altitude 494.3 km
Velocity 7.62 km/s
Sub-Earth Point -51.89°S, 151.16°E
Launch Date Nov 18, 2024
Age 1.5 years
Type internet

Technical Details

Classification Payload
Mass 730.00 kg
Dry Mass 700.00 kg
Total Mass 730.00 kg
Length 0.30 m
Diameter 4.10 m
Span 29.00 m
Shape Box + pan
Manufacturer SPXS
Bus Type Starlink V2M
Phase Status In Orbit
Owner/State SPXS/US

Most Searched